Regional Weather Roundup
Issued by NWS Little Rock, AR

Home | Current Version | Previous Version | Text Only | Print | Product List | Glossary On
Versions: 1 2 3 4 5 6 7 8 9 10 11 12 13 14 15 16 17 18 19 20 21 22 23 24 25 26 27 28 29 30 31 32 33 34 35 36 37 38 39 40 41 42 43 44 45 46 47 48 49 50
000
ASUS44 KLZK 011105
RWRLZK

WEATHER ROUNDUP FOR ARKANSAS
NATIONAL WEATHER SERVICE LITTLE ROCK AR
600 AM CDT FRI AUG 01 2014

NOTE: "FAIR" INDICATES FEW OR NO CLOUDS BELOW 12,000 FEET WITH NO
SIGNIFICANT WEATHER AND/OR OBSTRUCTIONS TO VISIBILITY.

ARZ001-003-010-029-011200-
NORTHWEST ARKANSAS

CITY           SKY/WX    TMP DP  RH WIND       PRES   REMARKS
FAYETTEVILLE   CLOUDY    65  64  97 CALM      30.09S
FORT SMITH     CLOUDY    69  67  93 NE3       30.05F
HARRISON       FOG       64  64 100 S3        30.10R VSB 3/4
BENTONVILLE    CLOUDY    66  63  88 CALM      30.10S
ROGERS         CLOUDY    65  64  97 CALM      30.10S FOG
SILOAM SPGS    CLOUDY    64  61  88 CALM      30.10S
HIGHFILL       CLOUDY    65  65 100 CALM      30.09S
SPRINGDALE     CLOUDY    66  64  94 CALM      30.11
$$

ARZ004-005-016-011200-
NORTH CENTRAL ARKANSAS

CITY           SKY/WX    TMP DP  RH WIND       PRES   REMARKS
BATESVILLE     CLOUDY    66  64  94 CALM      30.07S
FLIPPIN        CLOUDY    64  64 100 CALM      30.09R VSB 1/4
MTN HOME       FOG       63  63 100 CALM      30.08R VSB 1/2
$$

ARZ040-041-011200-
WEST CENTRAL ARKANSAS

CITY           SKY/WX    TMP DP  RH WIND       PRES   REMARKS
MENA           CLOUDY    68  66  94 CALM      30.06S
MOUNT IDA      CLOUDY    67  65  93 CALM      30.03S FOG
$$

ARZ009-017-025-026-028-011200-
NORTHEAST ARKANSAS

CITY           SKY/WX    TMP DP  RH WIND       PRES   REMARKS
CORNING        CLOUDY    68  68 100 E5        30.07F FOG
JONESBORO      CLOUDY    69  67  93 CALM      30.07R
NEWPORT        CLOUDY    69  68  97 NE5       30.08R FOG
WALNUT RIDGE   PTCLDY    70  64  83 E6        30.06S
BLYTHEVILLE    CLOUDY    69  68  96 NE3       30.07S
$$

ARZ022-023-033-042-044-011200-
CENTRAL ARKANSAS

CITY           SKY/WX    TMP DP  RH WIND       PRES   REMARKS
LITTLE ROCK    CLOUDY    69  65  86 N5        30.05R
N LITTLE ROCK    N/A     67  66  97 N5        30.05R
JACKSONVILLE   MOCLDY    69  67  93 NE2       30.06R
SEARCY         CLOUDY    68  66  93 N5        30.07R
HOT SPRINGS    CLOUDY    67  65  93 CALM      30.05R
RUSSELLVILLE   CLOUDY    69  67  93 CALM      30.06S FOG
CLINTON        CLOUDY    66  66 100 CALM      30.07S FOG
$$

ARZ036-011200-
EAST ARKANSAS

CITY           SKY/WX    TMP DP  RH WIND       PRES   REMARKS
WEST MEMPHIS   MOCLDY    69  69 100 N3        30.05R
$$

ARZ050-053-066-070-073-011200-
SOUTHWEST ARKANSAS

CITY           SKY/WX    TMP DP  RH WIND       PRES   REMARKS
ARKADELPHIA    CLOUDY    69  68  97 NE3       30.04R
CAMDEN         RAIN      66  64  94 S6        30.02S
TEXARKANA      CLOUDY    65  65 100 E6        30.01S FOG
EL DORADO      HVY RAIN  64  64 100 NE7       30.02S FOG
DE QUEEN       CLOUDY    67  66  97 CALM      30.02R FOG
$$

ARZ056-057-069-011200-
SOUTHEAST ARKANSAS

CITY           SKY/WX    TMP DP  RH WIND       PRES   REMARKS
PINE BLUFF     CLOUDY    68  64  87 NE3       30.04R
STUTTGART      CLOUDY    70  64  83 NE8       30.05R
MONTICELLO     LGT RAIN  70  67  90 E5        30.03R

$$





USA.gov is the U.S. government's official web portal to all federal, state and local government web resources and services.